Location: Hohenfelde
(53.8441°N, 9.6220°E)
Time: 11:59:07
(UTC+00:00)

Cosmos 1933 Rocket - Pass Details

Date: 14 July 2020
Orbit: 607 x 629 km, 82.5° (Epoch: 09 August)

Event Time Altitude Azimuth Distance (km) Brightness Sun altitude
Exits shadow 00:23:25 21° 177° (S) 1,391 4.8 -13.6°
Maximum altitude 00:26:16 69° 98° (E) 655 3.7 -13.5°
Drops below altitude 10° 00:30:37 10° 15° (NNE) 1,978 7.6 -13.3°
Sets 00:32:52 0° 13° (NNE) 2,889 9.1 -13.2°
